Vorticity
nan nan nan nan nan nan nan nan nan nan nan nan nan nan nan nan nan nan nan nan nan nan nan nan nan nan nan nan nan nan nan nan nan nan nan nan nan nan nan nan nan nan nan nan nan nan nan nan nan
nan 11 7 6 8 5 7 11 6 2 -3 1 11 12 7 7 11 13 13 10 8 5 6 6 3 5 7 7 7 7 7 7 7 6 6 5 5 5 5 5 5 5 4 5 5 5 5 5 nan
nan 9 8 7 5 5 4 8 6 5 -1 8 10 5 10 9 13 7 10 14 7 5 5 7 6 5 6 6 6 6 6 7 6 6 6 5 5 5 5 5 5 5 5 5 5 5 5 4 nan
nan 5 5 7 5 2 6 -3 10 4 6 5 6 5 5 9 13 14 11 8 4 6 5 5 5 4 5 6 6 6 6 6 6 6 5 5 5 5 5 5 5 5 5 5 5 5 4 4 nan
nan 4 8 7 5 3 9 -0 2 4 7 3 6 7 7 10 12 15 8 6 5 5 7 4 5 6 6 5 5 5 5 6 6 6 5 5 5 5 4 5 5 5 5 6 6 5 5 5 nan
nan 6 8 6 7 7 2 4 3 5 6 11 11 10 10 8 12 7 7 7 6 5 6 6 5 5 5 5 6 6 6 5 6 6 5 5 5 5 5 6 6 5 6 6 6 6 5 5 nan
nan 3 3 5 8 7 2 5 5 7 13 7 11 16 8 11 8 9 7 8 6 6 6 6 5 3 4 5 6 5 6 6 6 6 6 6 5 5 5 6 5 5 6 6 6 6 5 5 nan
nan 6 11 5 6 6 4 7 9 9 10 8 8 15 6 12 8 7 8 8 6 5 6 5 7 6 4 4 5 6 6 6 6 6 5 5 4 5 6 4 9 5 5 5 5 5 6 6 nan
nan 10 11 11 3 5 6 8 2 -0 5 9 4 5 18 13 8 6 7 7 5 6 6 7 6 6 6 5 6 4 6 4 5 4 5 4 5 6 3 5 7 5 4 5 5 5 5 6 nan
nan 6 6 4 8 9 8 9 1 -5 2 5 -1 3 22 11 7 6 7 8 7 6 5 6 6 7 4 5 8 5 5 5 5 5 4 2 7 5 5 9 4 5 7 6 8 7 7 4 nan
nan 4 9 4 7 5 9 9 5 6 -2 0 2 4 5 14 13 5 8 9 7 5 5 6 6 7 5 4 4 6 6 7 9 8 5 6 7 7 6 6 7 10 7 8 10 6 6 4 nan
nan 7 6 10 10 5 4 7 12 7 -0 2 -6 -2 2 9 7 15 12 6 8 7 7 7 6 5 6 4 6 6 6 7 7 9 5 4 6 6 6 7 6 7 8 8 5 6 7 8 nan
nan 7 9 8 4 5 9 7 9 9 5 -2 -5 -3 -2 -3 5 10 9 11 9 9 8 7 5 6 6 5 5 6 7 8 7 8 6 4 5 6 6 5 6 6 7 6 6 6 6 8 nan
nan 9 8 10 8 7 4 7 8 3 10 -1 -1 -2 -4 -2 1 4 14 12 8 9 8 8 7 6 5 6 4 6 8 6 7 7 8 7 5 6 6 7 7 7 7 6 7 6 6 7 nan
nan 11 10 6 6 11 11 7 6 5 6 7 6 1 0 -3 2 4 3 12 15 10 10 9 8 7 7 6 5 5 7 7 7 8 9 8 5 4 7 7 8 8 7 7 8 8 8 7 nan
nan 7 7 11 10 4 10 14 8 3 2 11 9 4 3 -1 1 5 5 9 12 14 12 8 10 8 7 6 6 6 7 8 7 8 10 10 7 7 7 7 8 9 7 8 8 8 8 8 nan
nan 9 9 8 12 13 4 4 12 15 10 3 8 2 4 3 -2 3 9 11 12 11 13 12 9 8 8 7 6 8 7 7 8 8 9 11 8 6 7 7 8 9 7 6 8 8 6 8 nan
nan 7 7 12 11 10 6 4 6 9 13 12 12 10 5 2 -2 2 8 11 12 13 14 11 11 11 9 8 8 8 8 9 8 9 9 9 10 8 6 5 8 7 7 10 8 4 6 9 nan
nan 14 10 9 13 12 11 9 9 2 4 9 13 11 8 9 1 1 5 7 11 13 12 12 10 11 8 9 9 8 8 10 9 10 10 7 9 9 5 7 9 5 6 7 7 10 8 5 nan
nan 6 7 10 19 19 12 10 11 9 8 7 7 14 14 9 3 2 6 14 12 11 9 9 10 11 8 7 9 10 12 10 10 11 10 9 9 9 6 8 7 8 8 9 8 7 7 8 nan
nan 7 4 3 14 19 14 13 13 14 11 11 6 10 22 18 6 6 9 7 7 10 10 10 12 9 9 8 7 8 9 10 11 10 11 12 10 9 9 7 6 8 7 9 9 6 5 8 nan
nan 9 3 6 7 11 9 12 18 14 11 9 9 9 15 16 1 -0 10 7 10 11 14 12 10 9 11 11 7 7 4 8 10 10 11 9 11 8 7 6 8 5 6 10 7 7 7 8 nan
nan 7 8 7 6 11 6 7 21 15 10 15 13 17 13 8 9 11 15 15 17 15 13 13 13 11 11 9 10 9 9 9 9 9 8 7 8 8 7 7 7 7 7 6 6 7 6 6 nan
nan 9 10 13 13 12 7 13 14 15 15 13 12 16 21 18 16 16 17 19 16 15 12 12 13 12 10 10 9 10 12 9 9 8 7 9 8 9 9 8 7 7 7 6 8 8 6 5 nan
nan 9 9 14 11 13 19 4 0 10 19 15 12 12 13 14 13 13 13 15 15 17 14 9 8 9 10 11 9 9 9 9 9 9 8 8 10 9 10 8 7 9 7 7 8 7 8 9 nan
nan 1 5 11 11 9 11 12 11 7 11 11 10 10 10 10 10 11 12 11 12 11 14 13 8 7 9 8 8 8 9 11 12 9 9 10 9 7 6 9 10 9 7 8 8 9 8 8 nan
nan 4 7 8 8 15 12 8 8 8 9 7 6 7 7 8 10 8 8 8 7 8 8 10 9 7 7 8 8 7 7 9 10 9 9 9 9 10 9 8 8 9 10 9 8 7 8 9 nan
nan 14 7 8 8 10 9 4 11 11 4 6 6 6 7 6 6 6 6 7 8 7 5 6 7 7 7 6 6 6 6 5 6 8 8 8 8 8 8 9 10 11 11 10 9 8 7 5 nan
nan 6 -0 7 15 14 3 7 15 16 8 7 8 7 6 7 6 6 6 5 6 6 7 6 6 6 6 7 6 6 6 7 8 8 8 8 8 9 8 8 9 9 10 11 9 7 6 7 nan
nan nan nan nan nan nan nan nan nan nan nan nan nan nan nan nan nan nan nan nan nan nan nan nan nan nan nan nan nan nan nan nan nan nan nan nan nan nan nan nan nan nan nan nan nan nan nan nan nan
CAPE
0 0 0 0 0 0 0 0 0 0 2 47 0 4 234 283 204 1317 1800 1122 634 1349 2025 1549 2208 2272 2358 2364 2299 1996 1695 1490 1672 1669 1585 1477 1694 1883 1896 2007 2077 1579 895 629 619 505 283 277 240
0 0 0 0 0 0 0 0 0 0 0 0 0 0 594 594 1336 1888 1765 1216 1201 1770 2118 1399 2094 2235 2207 2205 2129 2008 1989 1934 1779 1618 1607 1635 1802 1894 1823 1831 1644 1200 644 308 351 369 383 444 458
0 0 0 0 0 0 3 0 0 0 0 0 0 178 942 1009 1764 1620 1478 1423 1319 1829 1811 1658 2129 2147 2097 1913 2035 1964 1972 1923 1856 1782 1734 1807 1884 1874 1775 1708 1355 828 520 203 242 353 438 417 404
0 0 0 0 0 0 0 0 0 0 0 0 0 0 1128 1549 1659 1286 1339 1389 1483 1454 1534 1828 2070 2052 1978 1903 1916 1956 1938 1928 1927 1860 1808 1841 1865 1755 1680 1593 1340 947 598 180 312 497 620 556 484
0 0 0 0 0 0 0 0 0 0 0 0 0 0 980 1936 1817 1430 1426 1177 1029 1227 1455 1680 2016 1995 1936 1905 1879 1856 1872 1821 1817 1833 1820 1815 1728 1623 1633 1608 1375 1099 739 256 368 596 779 786 633
0 0 0 0 0 0 0 0 0 0 0 0 53 31 1104 2368 2248 1451 1452 1139 846 1288 1569 1345 1860 1917 1843 1794 1696 1599 1600 1655 1736 1749 1772 1748 1617 1574 1586 1514 1182 925 606 359 361 533 603 623 599
0 0 0 0 0 0 0 0 0 0 0 56 243 528 1524 2237 2620 1766 1791 1155 1061 1442 1475 1257 814 1439 1803 1725 1566 1475 1414 1465 1520 1525 1554 1535 1459 1398 1396 1180 826 619 457 332 312 400 433 391 373
0 0 0 0 0 0 0 0 0 0 0 2 85 539 1060 2378 2852 2122 1969 1370 1234 1413 1269 1057 633 455 685 1035 1643 1509 1410 1403 1370 1412 1431 1357 1305 1204 1023 1045 808 579 376 240 224 250 220 178 171
0 0 0 0 0 0 0 0 0 0 0 0 0 0 725 2514 2641 2367 2109 1588 1083 1091 1215 916 523 390 414 567 1004 1335 1258 1394 1349 1244 1372 768 79 312 730 404 982 748 564 308 180 138 135 106 127
0 0 0 0 0 0 0 0 0 0 0 0 20 0 1709 2310 2199 1990 1635 1399 972 1008 1120 948 726 572 468 405 894 607 541 487 318 216 509 154 50 297 157 538 969 760 797 741 570 454 183 88 0
0 0 0 0 0 0 0 0 0 0 2 0 0 0 5 1513 2012 1781 1264 963 931 944 1117 1036 1269 1094 804 598 902 621 652 591 668 652 777 314 186 288 173 57 309 297 457 113 380 221 144 5 0
0 0 0 0 0 0 0 0 0 0 1 0 0 0 0 0 0 1596 1660 1236 1092 1066 1168 1293 1660 1630 1245 779 881 918 970 968 1068 1118 1505 1238 1254 985 720 391 329 499 259 282 238 156 139 154 129
0 0 0 0 0 0 0 0 0 0 5 0 0 0 0 0 0 0 0 1904 1637 1567 1576 1585 1720 2045 1773 1252 1032 1139 1157 1241 1324 1394 1535 1299 1280 1224 1276 1203 1175 1039 993 1022 1156 1126 1228 1188 1127
0 0 0 0 0 0 0 0 0 0 5 4 0 0 0 0 0 0 0 115 2375 2054 1907 1796 1998 2303 2200 2018 1784 1510 1553 1315 1490 1482 1557 1718 1541 1545 1456 1520 1415 1275 1182 1085 1124 1177 1307 1342 1280
0 0 0 0 0 0 0 0 5 0 0 0 0 0 0 0 0 0 0 0 265 2283 2486 2236 2213 2458 2710 2518 2381 2265 1883 1721 1707 1665 1830 2025 2086 2025 2108 1584 1444 1299 1394 1538 1598 1571 1589 1557 1408
0 0 0 0 0 0 0 0 0 17 2 1 35 0 0 0 0 0 0 0 0 169 2391 2935 2416 2301 2884 2843 2689 2499 2278 2236 2008 1947 1990 2330 2355 2202 2113 1646 1596 1662 1884 1907 2018 2004 1939 1867 1786
0 0 0 0 0 0 0 0 0 30 52 0 22 5 0 0 0 2 0 0 0 0 1174 2403 3067 2638 2738 3007 2783 2730 2659 2578 2344 2177 2076 2222 2204 1943 2011 1918 2209 2501 2400 2360 2339 2306 2185 2064 1928
0 0 0 0 0 0 0 0 0 4 35 13 8 0 0 1 2 12 6 0 0 0 0 1052 2252 3125 3195 3122 3118 2818 2747 2724 2549 2432 2167 2071 1922 2110 2371 2446 2574 2679 2464 1831 1678 1788 1635 1475 1570
9 7 0 0 0 8 0 0 0 0 0 0 1 45 4 48 1 14 11 0 0 1 111 400 976 2292 3189 2895 2629 2631 2548 2631 2625 2490 2187 2309 2445 2562 2582 2763 2478 2489 1316 966 983 1015 749 579 438
0 20 4 5 29 56 0 1 0 0 0 0 2 30 0 15 30 22 0 0 0 94 364 1450 1761 2462 2613 2162 2297 2155 2413 2522 2491 2239 2165 2473 2316 2437 2636 2305 812 402 180 619 469 433 208 8 44
0 3 25 35 84 5 38 43 14 0 0 0 0 0 0 0 17 0 0 0 1 66 275 953 2659 2404 2436 2343 2482 2049 2333 2115 2417 2546 2900 2818 2754 2144 931 372 153 149 199 3 193 111 18 0 0
2 0 2 17 93 170 103 205 68 14 0 0 0 0 0 0 0 0 0 0 4 50 161 940 1893 2422 2460 1969 1422 1754 1727 1521 1602 1929 1413 712 287 160 122 115 65 194 19 25 0 1 0 0 0
1 4 17 25 66 104 129 166 60 61 3 0 0 0 0 0 0 0 0 0 6 39 258 562 1085 1533 1386 1572 1457 1779 1593 815 155 32 68 237 170 53 15 35 28 50 42 38 68 1 0 0 2
0 1 1 56 81 118 106 174 106 101 54 19 0 0 0 0 0 0 0 0 47 29 146 362 567 579 616 398 338 287 139 59 7 2 0 0 0 11 76 41 121 190 190 91 78 99 30 17 8
0 16 70 75 98 97 100 122 29 233 199 78 41 0 0 0 0 0 12 13 41 99 150 194 259 179 113 103 97 77 106 112 119 140 1 34 0 0 306 199 346 206 262 215 268 199 126 96 38
10 84 115 97 118 90 43 58 141 175 36 48 19 0 0 0 0 0 0 0 0 0 2 14 10 0 0 0 0 0 0 0 4 11 27 22 0 14 58 97 235 340 293 193 594 188 53 329 46
92 89 101 91 75 91 91 95 187 91 90 44 23 13 0 0 0 0 0 0 0 0 0 0 0 0 0 0 0 0 0 0 0 0 0 0 9 4 27 44 80 132 247 501 858 216 536 391 313
52 59 97 100 113 83 64 130 105 197 160 74 68 1 0 0 0 0 0 0 0 0 0 0 0 0 0 0 0 0 0 0 0 0 0 0 0 0 0 0 40 136 223 351 851 587 629 578 116
57 101 117 134 117 142 95 127 232 177 127 85 21 0 0 0 0 0 0 0 0 0 0 0 0 0 0 0 0 0 0 0 0 0 0 0 0 0 0 0 0 0 1 140 636 560 350 353 351
55 108 108 433 177 160 240 168 107 197 91 42 0 0 0 0 0 0 0 0 0 0 0 0 0 0 0 0 0 0 0 0 0 0 0 0 0 0 0 0 0 0 0 0 3 85 227 288 300